| time (UTC) | temp C | wind direction | speed KPH | gust KPH | rain 1hr cm | rain 24hr cm | rain mn cm | humidity % | barometer mb |
| 20260906220020 | 18 | 106 | 1.6 | 9.7 | 0.00 | 0.71 | 0.71 | 80 | 1018.0 |
| 20260906214517 | 17 | 33 | 0.0 | 9.7 | 0.00 | 0.71 | 0.71 | 82 | 1017.9 |
| 20260906213014 | 18 | 30 | 3.2 | 9.7 | 0.00 | 0.71 | 0.71 | 83 | 1017.9 |
| 20260906211519 | 17 | 111 | 1.6 | 6.4 | 0.00 | 0.71 | 0.71 | 84 | 1017.8 |
| 20260906210005 | 17 | 124 | 0.0 | 3.2 | 0.00 | 0.71 | 0.71 | 85 | 1017.8 |
| 20260906204510 | 17 | 53 | 0.0 | 3.2 | 0.00 | 0.71 | 0.71 | 88 | 1017.8 |
| 20260906203012 | 16 | 101 | 0.0 | 4.8 | 0.00 | 0.71 | 0.71 | 86 | 1017.7 |
| 20260906201519 | 16 | 10 | 0.0 | 3.2 | 0.03 | 0.71 | 0.71 | 88 | 1017.8 |
| 20260906200027 | 16 | 244 | 0.0 | 0.0 | 0.03 | 0.71 | 0.71 | 87 | 1017.8 |
| 20260906194516 | 15 | 126 | 0.0 | 0.0 | 0.03 | 0.71 | 0.71 | 91 | 1017.8 |
| 20260906193012 | 15 | 134 | 0.0 | 0.0 | 0.03 | 0.71 | 0.71 | 92 | 1017.8 |
| 20260906191516 | 15 | 32 | 0.0 | 0.0 | 0.03 | 0.69 | 0.69 | 91 | 1017.9 |
| 20260906190024 | 14 | 351 | 0.0 | 0.0 | 0.05 | 0.69 | 0.69 | 93 | 1018.0 |
| 20260906184536 | 14 | 34 | 0.0 | 4.8 | 0.10 | 0.69 | 0.69 | 93 | 1017.9 |
| 20260906183010 | 14 | 54 | 0.0 | 4.8 | 0.15 | 0.69 | 0.69 | 94 | 1017.9 |
| 20260906181535 | 14 | 42 | 1.6 | 4.8 | 0.20 | 0.66 | 0.66 | 94 | 1017.8 |
| 20260906180018 | 13 | 310 | 3.2 | 4.8 | 0.20 | 0.64 | 0.64 | 94 | 1017.7 |
| 20260906174528 | 14 | 343 | 0.0 | 3.2 | 0.18 | 0.58 | 0.58 | 94 | 1017.4 |
| 20260906173008 | 13 | 17 | 0.0 | 0.0 | 0.18 | 0.53 | 0.53 | 95 | 1017.1 |
| 20260906171514 | 13 | 40 | 0.0 | 3.2 | 0.13 | 0.46 | 0.46 | 95 | 1017.1 |
| 20260906170021 | 13 | 257 | 0.0 | 0.0 | 0.10 | 0.43 | 0.43 | 95 | 1017.0 |
| 20260906164526 | 13 | 257 | 0.0 | 0.0 | 0.10 | 0.41 | 0.41 | 95 | 1017.0 |
| 20260906163030 | 13 | 257 | 0.0 | 0.0 | 0.08 | 0.36 | 0.36 | 95 | 1017.0 |
| 20260906161510 | 13 | 257 | 0.0 | 0.0 | 0.10 | 0.33 | 0.33 | 95 | 1017.2 |
| 20260906160016 | 13 | 303 | 0.0 | 0.0 | 0.13 | 0.33 | 0.33 | 95 | 1017.1 |
| 20260906154523 | 13 | 229 | 3.2 | 4.8 | 0.15 | 0.30 | 0.30 | 95 | 1016.9 |
| 20260906153032 | 13 | 228 | 0.0 | 3.2 | 0.15 | 0.28 | 0.28 | 95 | 1017.0 |
| 20260906151530 | 12 | 244 | 0.0 | 3.2 | 0.13 | 0.23 | 0.23 | 95 | 1017.0 |
| 20260906150013 | 12 | 118 | 0.0 | 0.0 | 0.10 | 0.20 | 0.20 | 95 | 1017.1 |
| 20260906144521 | 12 | 118 | 0.0 | 0.0 | 0.08 | 0.15 | 0.15 | 95 | 1017.0 |
| 20260906143024 | 12 | 341 | 0.0 | 0.0 | 0.05 | 0.13 | 0.13 | 95 | 1016.7 |
| 20260906141531 | 12 | 341 | 0.0 | 0.0 | 0.03 | 0.10 | 0.10 | 95 | 1016.5 |
| 20260906140031 | 12 | 341 | 0.0 | 0.0 | 0.05 | 0.10 | 0.10 | 95 | 1016.2 |
| 20260906134520 | 12 | 293 | 0.0 | 6.4 | 0.05 | 0.08 | 0.08 | 95 | 1016.2 |
| 20260906133035 | 12 | 123 | 0.0 | 0.0 | 0.05 | 0.08 | 0.08 | 95 | 1016.0 |
| 20260906131529 | 12 | 207 | 0.0 | 0.0 | 0.05 | 0.08 | 0.08 | 95 | 1015.9 |
| 20260906130008 | 12 | 207 | 0.0 | 0.0 | 0.03 | 0.05 | 0.05 | 95 | 1016.0 |
| 20260906124515 | 12 | 207 | 0.0 | 0.0 | 0.00 | 0.03 | 0.03 | 95 | 1016.0 |
| 20260906123033 | 12 | 207 | 0.0 | 0.0 | 0.00 | 0.03 | 0.03 | 94 | 1016.2 |
| 20260906121529 | 12 | 225 | 0.0 | 0.0 | 0.00 | 0.03 | 0.03 | 94 | 1016.2 |
| 20260906120010 | 12 | 219 | 0.0 | 0.0 | 0.00 | 0.03 | 0.03 | 94 | 1016.3 |
| 20260906114532 | 12 | 5 | 0.0 | 0.0 | 0.03 | 0.03 | 0.03 | 94 | 1016.2 |
| 20260906113026 | 12 | 13 | 0.0 | 0.0 | 0.03 | 0.03 | 0.03 | 94 | 1016.2 |
| 20260906111529 | 12 | 106 | 0.0 | 0.0 | 0.03 | 0.03 | 0.03 | 93 | 1016.0 |
| 20260906110029 | 12 | 352 | 0.0 | 4.8 | 0.03 | 0.03 | 0.03 | 93 | 1016.0 |
| 20260906104514 | 12 | 213 | 0.0 | 0.0 | 0.00 | 0.00 | 0.00 | 94 | 1016.0 |
| 20260906103019 | 12 | 218 | 0.0 | 0.0 | 0.00 | 0.00 | 0.00 | 94 | 1015.9 |
| 20260906101523 | 12 | 223 | 0.0 | 3.2 | 0.00 | 0.00 | 0.00 | 94 | 1015.9 |
| 20260906100031 | 12 | 225 | 0.0 | 0.0 | 0.00 | 0.00 | 0.00 | 94 | 1015.9 |
| 20260906094529 | 12 | 225 | 0.0 | 0.0 | 0.00 | 0.00 | 0.00 | 94 | 1016.0 |
| 20260906093016 | 12 | 227 | 0.0 | 0.0 | 0.00 | 0.00 | 0.00 | 93 | 1015.9 |
| 20260906091531 | 12 | 227 | 0.0 | 0.0 | 0.00 | 0.00 | 0.00 | 94 | 1015.8 |
| 20260906090027 | 12 | 225 | 0.0 | 0.0 | 0.00 | 0.00 | 0.00 | 93 | 1015.8 |
| 20260906084535 | 12 | 236 | 0.0 | 0.0 | 0.00 | 0.00 | 0.00 | 93 | 1015.8 |
| 20260906083032 | 12 | 236 | 0.0 | 0.0 | 0.00 | 0.00 | 0.00 | 93 | 1015.8 |
| 20260906081521 | 12 | 236 | 0.0 | 0.0 | 0.00 | 0.00 | 0.00 | 93 | 1015.7 |
| 20260906080022 | 12 | 236 | 0.0 | 0.0 | 0.00 | 0.00 | 0.00 | 93 | 1015.8 |
| 20260906074530 | 12 | 236 | 0.0 | 3.2 | 0.00 | 0.00 | 0.00 | 93 | 1015.8 |
| 20260906073030 | 12 | 244 | 0.0 | 0.0 | 0.00 | 0.00 | 0.00 | 93 | 1016.0 |
| 20260906071533 | 12 | 248 | 0.0 | 3.2 | 0.00 | 0.00 | 0.00 | 93 | 1016.1 |
| 20260906070025 | 12 | 249 | 0.0 | 0.0 | 0.00 | 0.00 | 0.00 | 92 | 1016.2 |
| 20260906064528 | 12 | 257 | 0.0 | 0.0 | 0.00 | 0.00 | 0.00 | 92 | 1016.2 |
| 20260906063031 | 12 | 219 | 0.0 | 0.0 | 0.00 | 0.00 | 0.00 | 92 | 1016.2 |
| 20260906061534 | 12 | 208 | 0.0 | 0.0 | 0.00 | 0.00 | 0.00 | 92 | 1016.2 |
| 20260906060019 | 12 | 208 | 0.0 | 0.0 | 0.00 | 0.00 | 0.00 | 91 | 1016.1 |
| 20260906054528 | 12 | 208 | 0.0 | 0.0 | 0.00 | 0.00 | 0.00 | 91 | 1016.3 |
| 20260906053032 | 12 | 208 | 0.0 | 0.0 | 0.00 | 0.00 | 0.00 | 90 | 1016.3 |
| 20260906051530 | 13 | 209 | 0.0 | 3.2 | 0.00 | 0.00 | 0.00 | 90 | 1016.3 |
| 20260906050037 | 13 | 242 | 0.0 | 3.2 | 0.00 | 0.00 | 0.00 | 90 | 1016.4 |
| 20260906044525 | 13 | 250 | 0.0 | 3.2 | 0.00 | 0.00 | 0.00 | 89 | 1016.5 |
| 20260906043009 | 13 | 244 | 0.0 | 3.2 | 0.00 | 0.00 | 0.00 | 89 | 1016.6 |
| 20260906041510 | 13 | 234 | 0.0 | 0.0 | 0.00 | 0.00 | 0.00 | 89 | 1016.6 |
| 20260906040026 | 13 | 237 | 0.0 | 0.0 | 0.00 | 0.00 | 0.00 | 88 | 1016.5 |
| 20260906034527 | 14 | 216 | 3.2 | 6.4 | 0.00 | 0.00 | 0.00 | 87 | 1016.4 |
| 20260906033025 | 14 | 244 | 0.0 | 4.8 | 0.00 | 0.00 | 0.00 | 86 | 1016.3 |
| 20260906031508 | 15 | 253 | 1.6 | 4.8 | 0.00 | 0.00 | 0.00 | 85 | 1016.1 |
| 20260906030009 | 15 | 220 | 1.6 | 4.8 | 0.00 | 0.00 | 0.00 | 83 | 1016.2 |
| 20260906024518 | 16 | 246 | 1.6 | 4.8 | 0.00 | 0.00 | 0.00 | 82 | 1016.2 |
| 20260906023023 | 16 | 215 | 3.2 | 6.4 | 0.00 | 0.00 | 0.00 | 80 | 1016.3 |
| 20260906021531 | 17 | 226 | 0.0 | 3.2 | 0.00 | 0.00 | 0.00 | 76 | 1016.4 |
| 20260906020009 | 17 | 208 | 1.6 | 4.8 | 0.00 | 0.00 | 0.00 | 73 | 1016.4 |
| 20260906014519 | 18 | 217 | 0.0 | 3.2 | 0.00 | 0.00 | 0.00 | 72 | 1016.4 |
| 20260906013020 | 18 | 211 | 0.0 | 3.2 | 0.00 | 0.00 | 0.00 | 70 | 1016.2 |
| 20260906011525 | 19 | 170 | 0.0 | 0.0 | 0.00 | 0.00 | 0.00 | 69 | 1016.2 |
| 20260906010006 | 20 | 96 | 0.0 | 0.0 | 0.00 | 0.00 | 0.00 | 68 | 1016.2 |
| 20260906004511 | 20 | 76 | 0.0 | 4.8 | 0.00 | 0.00 | 0.00 | 61 | 1016.2 |
| 20260906003022 | 20 | 297 | 0.0 | 4.8 | 0.00 | 0.00 | 0.00 | 62 | 1016.2 |
| 20260906001535 | 19 | 188 | 0.0 | 1.6 | 0.00 | 0.00 | 0.00 | 69 | 1016.3 |
| 20260906000030 | 19 | 232 | 0.0 | 4.8 | 0.00 | 0.00 | 0.00 | 64 | 1016.2 |
| 20260905234508 | 20 | 243 | 3.2 | 8.0 | 0.00 | 0.00 | 0.00 | 62 | 1016.2 |
| 20260905233018 | 20 | 178 | 0.0 | 6.4 | 0.00 | 0.00 | 0.00 | 65 | 1016.2 |
| 20260905231532 | 20 | 211 | 1.6 | 6.4 | 0.00 | 0.00 | 0.00 | 65 | 1016.4 |
| 20260905230031 | 20 | 178 | 0.0 | 11.3 | 0.00 | 0.00 | 0.00 | 62 | 1016.5 |
| 20260905224531 | 21 | 327 | 0.0 | 6.4 | 0.00 | 0.00 | 0.00 | 59 | 1016.6 |
| 20260905223016 | 21 | 190 | 3.2 | 8.0 | 0.00 | 0.03 | 0.00 | 60 | 1016.7 |
| 20260905221523 | 21 | 211 | 1.6 | 4.8 | 0.00 | 0.03 | 0.00 | 61 | 1016.8 |